Flag for Colombia Weather past 2 weeks in Cúcuta, Colombia

Now
81 °F

Fog.


Feels Like: 84 °F
Forecast: N/A
Wind: N/A

Location: San Antonio Del Tachira Airport

Current Time: Mar 6, 2015 at 4:50:29 PM

Latest Report: Mar 6, 2015 at 4:00 PM


Visibility: 4 mi

Pressure: 29.92 "Hg

Humidity: 70%

Dew point: 70 °F

Location of CúcutaLocation

Historic Weather in Cúcuta — Graph

°F

Cúcuta temperature yesterday

Maximum temperature yesterday: 93 °F (at 2:00 PM)
Minimum temperature yesterday: 72 °F (at 7:00 AM)
Average temperature yesterday: 82 °F

Past Weeks' High & Low Weather Summary

 TemperatureHumidityPressure
High95 °F (Feb 26, 4:00 PM)100% (Feb 20, 1:00 AM)30.07 "Hg (Feb 20, 1:00 AM)
Low68 °F (Feb 21, 6:00 AM)32% (Feb 26, 4:00 PM)29.83 "Hg (Feb 25, 4:00 PM)
Average80 °F69%29.94 "Hg
* Reported Feb 19 3:00 PM — Mar 6 3:00 PM, Cúcuta, Weather by CustomWeather, © 2015

Note: Actual official high and low records may vary slightly from our data, if they occured in-between our weather recording intervals... More about our weather records

Advertising

Cúcuta weather history for previous 24 hours

 ConditionsComfort  
Time TempWeatherWind HumidityBarometerVisibility
3:00 PM
Fri, Mar 6
81 °FFog.N/A74%29.98 "Hg4 mi
2:00 PM81 °FFog.N/A70%30.01 "Hg4 mi
1:00 PM81 °FFog.N/A74%29.95 "Hg5 mi
12:00 PM77 °FFog.N/A83%30.01 "Hg4 mi
11:00 AM75 °FFog.N/A89%30.04 "Hg4 mi
10:00 AM75 °FFog.N/A89%30.04 "Hg4 mi
9:00 AM75 °FFog.N/A94%30.01 "Hg4 mi
8:00 AM73 °FFog.N/A94%30.01 "Hg4 mi
7:00 AM72 °FFog.N/A100%30.04 "Hg4 mi
6:00 AM73 °FFog.N/A100%29.98 "Hg5 mi
4:00 AM72 °FPassing clouds.N/A88%29.92 "HgN/A
1:00 AM75 °FPassing clouds.N/A83%29.95 "HgN/A
10:00 PM
Thu, Mar 5
77 °FPassing clouds.N/A79%29.98 "HgN/A
9:00 PM79 °FPassing clouds.N/A74%29.95 "HgN/A
8:00 PM81 °FPassing clouds.N/A70%29.92 "HgN/A
7:00 PM82 °FPassing clouds.N/A70%29.89 "HgN/A
6:00 PM86 °FPassing clouds.N/A59%29.89 "HgN/A
5:00 PM88 °FScattered clouds.N/A52%29.89 "HgN/A
4:00 PM91 °FScattered clouds.N/A49%29.83 "HgN/A
Weather by CustomWeather, © 2015

See weather overviewHow to use our weather pages